Wind_Speed
60 58 58 60 60 59 58 59 61 61 61 59 58 58 56 56 56 55 53 52 53 54 51 50 52 51 51 54 57 58 57 57 57 57 58 56 55 56 55 53 52 51 50
58 59 60 61 58 59 61 61 60 58 57 58 58 55 48 49 50 55 52 51 47 53 57 56 54 55 55 58 60 57 57 57 57 56 57 57 58 58 59 59 57 56 57
57 56 55 57 59 59 58 56 53 55 54 55 54 50 48 50 51 53 49 50 50 51 51 50 51 49 50 53 53 55 55 55 54 56 58 58 60 60 61 61 61 58 57
55 57 58 58 55 53 51 49 52 53 54 55 55 55 55 55 51 48 52 53 53 50 50 51 49 49 52 55 56 55 55 53 53 52 54 55 57 56 57 58 58 59 59
58 59 59 55 51 50 49 48 52 54 56 56 57 57 57 55 51 52 56 54 54 48 51 48 51 53 54 55 56 56 56 57 57 57 58 59 60 61 62 64 66 66 66
61 60 57 53 50 49 50 51 51 52 52 52 54 56 51 50 51 49 51 48 46 47 49 51 52 53 55 57 58 59 60 61 61 63 66 68 70 72 73 75 77 77 77
58 56 54 51 49 50 52 52 52 53 54 54 54 52 50 52 51 49 47 47 48 50 51 53 54 55 57 59 61 62 63 65 67 70 72 74 76 80 82 85 88 90 91
55 55 51 50 52 52 52 52 51 51 50 48 48 49 48 49 50 50 50 50 51 52 54 55 57 59 59 61 62 64 66 71 74 77 81 84 87 89 93 94 95 95 97
55 52 51 50 49 47 47 47 47 47 46 50 48 48 50 50 51 52 52 53 54 56 58 59 61 62 63 64 67 70 73 77 81 85 89 93 97 100 103 104 106 109 106
52 52 51 51 51 51 51 50 50 46 53 53 57 49 50 53 53 54 56 56 58 59 62 62 63 65 68 71 74 77 80 83 87 91 95 100 104 107 111 114 115 112 109
47 47 47 47 48 49 51 51 48 50 56 65 56 49 52 55 57 58 60 60 61 62 63 65 67 71 74 77 80 82 86 90 93 97 101 104 108 111 108 100 90 84 80
51 52 52 53 51 49 50 49 48 55 64 64 58 54 57 59 60 62 63 62 62 64 67 69 73 76 79 82 85 88 92 96 100 103 106 108 107 97 86 79 73 66 65
53 53 53 53 55 53 53 52 53 58 61 68 62 58 61 63 63 65 65 64 66 69 72 75 78 81 83 87 90 93 97 100 103 105 103 94 85 81 73 64 63 64 64
55 57 58 56 55 54 56 55 54 56 61 63 63 64 65 66 66 66 66 68 70 73 77 80 82 85 88 92 95 98 100 102 101 93 83 75 70 64 63 64 63 65 65
61 62 61 59 57 58 61 59 60 62 64 61 62 68 67 66 67 67 69 72 74 78 82 84 86 89 93 96 98 99 97 87 76 72 68 64 63 64 64 66 68 69 70
64 65 64 61 59 60 65 65 65 62 60 63 67 66 65 66 68 70 73 77 79 82 84 87 90 93 96 98 97 87 75 70 67 64 63 62 61 63 65 68 70 71 71
61 62 63 61 61 64 66 66 58 58 66 66 65 65 65 69 72 75 79 81 83 86 88 91 93 96 97 93 82 74 69 65 63 62 60 62 63 65 67 68 70 71 68
58 61 58 64 72 66 58 56 61 64 64 64 65 67 71 75 78 81 82 85 87 89 91 93 95 94 85 76 70 65 61 62 60 60 61 63 65 66 67 69 69 68 64
63 63 62 61 56 53 56 61 63 64 66 68 69 73 78 82 83 85 86 87 90 92 92 91 85 75 71 66 62 63 61 59 59 60 63 65 67 68 70 69 67 65 64
51 51 53 53 55 58 60 62 64 67 71 75 77 81 83 84 85 85 88 91 91 88 83 73 69 67 64 64 61 58 58 60 61 63 66 67 68 71 71 68 66 64 64
49 52 55 57 59 61 64 67 71 75 78 80 80 80 80 83 86 86 86 85 79 70 67 65 64 63 61 59 59 58 59 61 64 65 66 68 71 70 69 68 66 66 67
54 56 59 61 64 68 71 74 76 76 76 77 79 82 83 83 80 77 72 65 64 63 61 60 60 59 56 56 57 59 61 63 64 66 69 70 70 69 67 66 66 67 67
63 65 67 68 69 69 70 71 73 76 78 80 79 77 75 72 67 61 60 60 59 59 60 59 58 57 57 58 60 61 62 64 67 70 68 68 67 66 66 66 67 66 67
61 63 64 67 70 71 73 73 71 69 69 68 67 64 59 57 59 58 58 57 58 59 60 60 58 57 58 60 61 63 66 69 69 68 68 65 64 66 66 66 67 68 68
53 54 55 57 59 60 60 60 60 58 57 56 55 56 57 58 59 59 59 58 59 59 59 57 57 58 60 61 64 67 69 68 67 68 66 65 65 68 69 69 69 69 67
47 48 49 50 51 52 53 52 53 53 53 54 53 53 54 55 56 56 57 57 56 56 55 56 59 61 63 65 69 68 67 66 66 67 66 66 67 68 70 70 70 68 64
Wind_Direction
277 280 281 281 282 283 283 283 283 284 283 284 285 285 285 285 285 284 285 280 279 280 276 275 279 279 280 283 285 287 287 287 287 287 286 287 286 283 283 281 279 280 280
279 279 279 281 282 282 282 282 282 283 282 282 282 281 284 285 285 285 281 281 283 284 284 283 285 286 284 284 285 288 290 290 287 284 285 285 285 283 283 284 283 281 279
279 279 278 278 278 278 279 280 278 276 278 277 278 280 283 285 285 284 290 288 283 282 281 279 282 284 285 286 289 291 289 288 286 288 285 285 284 282 282 283 283 284 285
280 279 279 279 279 279 277 276 271 274 276 277 281 280 281 281 283 289 291 288 286 287 288 281 285 287 285 286 288 287 288 288 287 286 285 285 285 284 284 283 281 283 283
276 277 278 278 278 278 276 275 272 275 274 277 279 282 285 284 287 289 291 286 287 284 287 283 284 286 288 289 289 289 288 288 286 285 284 284 283 283 283 285 287 284 282
276 277 277 277 275 275 275 275 274 274 276 277 279 281 284 286 288 288 284 288 286 285 283 283 284 286 287 288 288 289 288 287 286 286 287 287 287 288 287 287 285 285 283
274 274 273 275 276 275 275 274 274 276 278 279 280 283 285 285 286 285 284 284 284 284 285 286 287 287 287 287 289 290 290 290 290 291 291 291 290 290 287 286 287 288 287
271 272 274 275 277 278 278 277 278 279 281 282 283 281 282 285 286 286 288 287 287 288 287 287 287 286 285 287 289 290 293 294 294 297 297 297 296 295 294 293 292 291 290
270 272 272 275 275 277 279 279 280 279 279 278 279 283 284 285 286 287 287 286 288 288 288 288 287 288 289 290 289 292 295 297 298 299 300 300 301 301 300 298 297 296 294
269 268 269 270 273 275 276 277 278 281 281 286 276 282 287 288 288 288 288 289 289 290 290 290 291 293 294 294 295 296 297 299 300 302 304 306 306 305 305 304 302 300 298
264 265 268 271 275 276 276 276 277 274 281 281 273 289 290 290 290 289 288 289 290 290 291 293 293 293 294 295 297 299 301 301 303 304 305 305 306 305 304 302 299 298 298
265 266 269 272 275 280 279 275 273 272 275 267 285 289 285 289 290 289 289 289 289 291 291 292 293 295 297 299 300 302 303 305 305 305 305 304 304 302 300 299 298 298 299
271 272 273 276 277 275 274 273 268 270 277 280 289 287 288 288 288 288 289 290 290 291 292 294 295 297 298 300 301 302 303 302 303 303 304 303 301 300 298 297 298 299 300
279 279 280 278 277 277 276 273 272 272 272 275 280 283 285 286 287 288 289 289 290 291 292 294 296 297 298 299 300 300 301 302 303 303 302 300 299 298 299 300 299 299 299
276 276 276 275 276 276 276 272 271 272 275 279 277 280 284 285 287 287 287 288 290 291 293 294 295 296 298 299 299 301 302 303 302 302 301 298 297 298 300 301 302 302 303
273 273 275 274 274 275 275 273 273 276 278 276 278 281 283 285 284 285 287 288 290 291 292 294 295 297 298 299 301 302 301 300 300 298 297 297 298 300 301 303 304 304 304
271 271 271 268 269 272 274 273 274 270 271 277 279 280 281 282 284 286 287 289 290 291 293 294 295 296 298 300 301 300 299 298 297 297 298 299 300 302 304 304 305 305 303
271 272 271 268 270 268 268 270 271 274 277 278 278 280 281 283 284 286 287 288 289 291 293 294 296 299 300 298 298 298 297 297 297 299 299 301 303 303 304 306 306 305 302
265 269 268 267 269 270 271 273 275 275 276 278 279 280 281 282 284 285 287 289 291 292 295 297 297 297 298 298 297 298 298 297 298 299 301 302 303 304 307 307 306 305 304
263 259 266 268 268 270 272 273 276 277 277 278 278 279 280 283 285 287 287 289 293 295 296 296 298 297 297 297 298 298 297 297 299 301 301 302 304 306 307 306 305 305 304
262 264 265 267 269 271 272 273 274 275 276 278 280 282 283 284 287 290 293 295 295 296 296 297 296 297 297 297 296 297 298 299 300 301 302 303 305 306 306 306 305 305 306
267 268 270 271 272 272 272 273 275 277 278 279 280 282 285 289 291 292 293 293 294 295 295 295 295 295 295 295 296 297 299 300 301 301 303 305 305 305 305 305 306 307 307
269 270 271 272 273 274 274 275 275 277 279 282 286 289 290 290 290 290 292 293 294 294 294 294 294 294 295 296 298 299 300 300 301 303 303 304 305 304 305 306 307 307 307
270 271 272 274 275 277 279 281 283 285 285 286 287 288 289 290 291 292 292 292 293 293 294 293 294 295 296 297 299 300 301 303 303 302 304 305 304 305 306 306 308 309 309
279 280 281 282 283 284 285 286 287 288 288 288 288 289 290 290 291 290 291 293 293 294 294 294 295 296 297 298 300 302 304 303 302 303 304 305 306 306 308 309 309 309 308
284 285 286 287 287 287 288 288 288 288 289 289 290 291 291 291 291 292 293 293 293 293 293 294 296 297 299 300 301 303 303 302 303 304 305 306 306 306 307 308 308 308 307
Height
5706 5705 5703 5699 5696 5693 5690 5687 5683 5680 5675 5672 5669 5666 5663 5660 5658 5655 5653 5650 5647 5645 5643 5640 5637 5634 5630 5627 5623 5621 5619 5620 5620 5616 5613 5610 5607 5606 5604 5603 5603 5601 5598
5691 5689 5686 5683 5679 5676 5673 5669 5666 5663 5661 5659 5657 5653 5651 5648 5645 5643 5640 5637 5634 5632 5630 5627 5624 5621 5617 5614 5610 5607 5603 5602 5602 5601 5597 5594 5592 5590 5588 5587 5587 5586 5584
5673 5671 5668 5665 5662 5659 5656 5654 5652 5650 5648 5647 5644 5641 5638 5636 5633 5630 5627 5624 5621 5618 5615 5612 5609 5606 5603 5600 5596 5592 5589 5587 5584 5584 5582 5578 5576 5574 5573 5571 5570 5570 5567
5655 5653 5650 5647 5645 5643 5642 5640 5639 5637 5636 5634 5631 5628 5624 5622 5619 5616 5614 5611 5608 5605 5602 5599 5596 5593 5590 5586 5582 5578 5575 5572 5570 5566 5564 5561 5558 5556 5553 5553 5555 5551 5549
5638 5636 5633 5631 5630 5630 5629 5627 5626 5623 5621 5620 5617 5614 5611 5608 5606 5603 5600 5597 5594 5590 5589 5586 5582 5579 5575 5571 5567 5564 5560 5557 5554 5551 5547 5544 5540 5539 5535 5534 5533 5533 5533
5622 5621 5619 5617 5616 5615 5614 5613 5611 5608 5606 5605 5602 5600 5597 5594 5592 5589 5586 5583 5580 5577 5574 5572 5568 5565 5561 5556 5552 5548 5544 5540 5537 5534 5529 5526 5521 5517 5515 5512 5508 5509 5508
5606 5605 5604 5603 5602 5600 5599 5598 5596 5594 5592 5590 5588 5586 5584 5582 5578 5575 5572 5568 5566 5563 5559 5556 5553 5549 5546 5542 5537 5532 5527 5522 5518 5513 5508 5502 5498 5492 5489 5487 5482 5480 5478
5590 5589 5589 5589 5587 5585 5584 5583 5581 5579 5577 5576 5574 5572 5569 5567 5563 5559 5556 5553 5550 5547 5545 5541 5536 5533 5530 5527 5521 5516 5511 5504 5499 5491 5483 5476 5470 5464 5459 5455 5452 5451 5449
5576 5576 5575 5574 5573 5570 5569 5568 5566 5565 5563 5561 5560 5557 5555 5553 5549 5544 5541 5537 5534 5531 5528 5524 5520 5516 5512 5509 5504 5498 5492 5485 5477 5468 5460 5451 5442 5433 5427 5423 5416 5409 5411
5562 5561 5560 5559 5558 5556 5555 5553 5552 5551 5549 5547 5545 5542 5540 5538 5535 5531 5526 5522 5517 5514 5511 5506 5502 5498 5493 5488 5482 5477 5471 5465 5457 5447 5436 5425 5415 5404 5393 5382 5375 5369 5359
5546 5546 5545 5546 5545 5542 5540 5538 5537 5536 5534 5532 5529 5524 5524 5522 5519 5514 5511 5506 5500 5497 5493 5487 5483 5478 5472 5466 5460 5453 5447 5440 5431 5423 5414 5404 5392 5380 5368 5357 5345 5337 5331
5533 5533 5532 5532 5530 5527 5526 5524 5523 5521 5520 5516 5512 5509 5508 5505 5502 5498 5494 5489 5485 5480 5475 5470 5463 5457 5452 5444 5437 5429 5421 5414 5406 5396 5386 5376 5366 5355 5346 5338 5328 5319 5312
5519 5518 5517 5516 5515 5512 5511 5509 5508 5507 5504 5500 5496 5493 5490 5487 5484 5480 5475 5470 5466 5461 5456 5450 5444 5437 5431 5422 5414 5406 5399 5390 5381 5370 5359 5349 5339 5332 5324 5319 5313 5305 5298
5505 5503 5501 5500 5499 5497 5495 5493 5492 5491 5488 5485 5482 5478 5474 5470 5467 5462 5457 5452 5449 5443 5435 5429 5422 5416 5408 5400 5391 5382 5373 5363 5354 5343 5334 5326 5318 5311 5305 5299 5294 5288 5282
5486 5486 5484 5483 5483 5481 5479 5477 5475 5472 5470 5467 5463 5460 5456 5452 5448 5444 5440 5434 5430 5423 5415 5408 5400 5392 5384 5376 5367 5357 5346 5335 5327 5319 5313 5307 5301 5295 5288 5280 5273 5266 5257
5467 5467 5466 5466 5465 5464 5462 5459 5457 5455 5452 5450 5446 5442 5438 5433 5429 5425 5420 5415 5409 5402 5395 5387 5379 5370 5362 5353 5343 5332 5322 5314 5307 5301 5295 5289 5284 5277 5271 5263 5254 5245 5237
5448 5448 5447 5447 5447 5446 5443 5441 5440 5438 5436 5432 5428 5423 5419 5415 5410 5406 5400 5393 5388 5381 5373 5365 5357 5348 5338 5328 5319 5311 5303 5296 5290 5283 5277 5271 5266 5260 5253 5245 5236 5226 5218
5429 5429 5429 5428 5427 5425 5424 5423 5422 5419 5416 5413 5409 5405 5400 5395 5390 5386 5379 5372 5365 5359 5351 5342 5333 5324 5314 5306 5298 5291 5284 5278 5271 5265 5259 5253 5247 5242 5235 5226 5217 5207 5199
5412 5412 5411 5410 5410 5409 5407 5405 5402 5399 5396 5393 5389 5385 5379 5374 5369 5364 5358 5351 5342 5334 5326 5317 5308 5299 5292 5286 5279 5273 5266 5260 5254 5248 5242 5235 5228 5222 5215 5205 5197 5189 5180
5395 5396 5396 5394 5393 5391 5389 5386 5383 5380 5376 5372 5368 5364 5359 5351 5346 5341 5335 5327 5320 5311 5304 5294 5286 5279 5273 5267 5261 5255 5249 5243 5237 5231 5224 5217 5210 5202 5194 5187 5178 5172 5164
5380 5379 5378 5377 5375 5373 5370 5367 5364 5360 5355 5350 5346 5341 5336 5329 5322 5315 5308 5302 5295 5287 5282 5275 5268 5261 5255 5249 5244 5238 5233 5227 5220 5214 5207 5200 5191 5183 5175 5167 5160 5152 5144
5363 5362 5360 5358 5356 5353 5350 5346 5342 5338 5333 5328 5323 5318 5312 5307 5300 5293 5286 5280 5273 5268 5263 5257 5251 5244 5239 5234 5229 5223 5217 5210 5203 5196 5189 5181 5172 5163 5157 5149 5142 5134 5125
5344 5342 5340 5337 5334 5331 5328 5324 5320 5315 5311 5305 5300 5295 5290 5285 5279 5273 5268 5263 5257 5250 5245 5240 5234 5228 5222 5216 5210 5206 5200 5193 5185 5177 5171 5163 5154 5145 5138 5131 5123 5116 5108
5324 5321 5319 5316 5314 5310 5306 5301 5297 5292 5288 5283 5279 5273 5268 5264 5260 5255 5250 5245 5239 5233 5228 5222 5216 5211 5206 5200 5194 5187 5180 5173 5165 5157 5150 5144 5136 5127 5121 5113 5104 5097 5088
5302 5300 5298 5295 5292 5288 5284 5280 5276 5272 5268 5264 5260 5256 5251 5247 5242 5238 5232 5227 5221 5216 5210 5204 5198 5193 5188 5182 5176 5169 5161 5152 5144 5137 5131 5125 5117 5108 5099 5092 5085 5078 5069
5285 5283 5280 5277 5273 5270 5266 5263 5259 5256 5252 5248 5244 5238 5234 5229 5225 5219 5214 5209 5204 5199 5193 5187 5181 5176 5170 5163 5156 5149 5142 5134 5126 5117 5111 5106 5099 5092 5082 5074 5065 5057 5050